Ohio State University, OH

6:09 PM EDT on March 25, 2017 (GMT -0400)
Ohio State University

Weather History for KOSU - March, 2013

Change the Weather History Date:

Thursday, March 7, 2013

  Actual Average Record
Temperature  
Mean Temperature 34 °F -  
Max Temperature 39 °F 41 °F 73 °F (2009)
Min Temperature 30 °F 25 °F 12 °F (1999)
Degree Days  
Heating Degree Days 30    
Moisture  
Dew Point 28 °F    
Average Humidity 77    
Maximum Humidity 86    
Minimum Humidity 65    
Precipitation  
Precipitation 0.00 in - - ()
Sea Level Pressure  
Sea Level Pressure 30.30 in    
Wind  
Wind Speed 8 mph (NW)    
Max Wind Speed 13 mph    
Max Gust Speed -    
Visibility 8 miles    
Events      
Averages and records for this station are not official NWS values.
T = Trace of Precipitation, MM = Missing Value Source: NWS Daily Summary

Daily Weather History Graph

Daily Weather History Graph

Search for Another Location

Airport or City:

Trip Planner

Search our weather history database for the weather conditions in past years. The results will help you decide how hot, cold, wet, or windy it might be!

Date:

Astronomy

Mar. 07, 2013 Rise Set
Actual Time 6:56 AM EST 6:30 PM EST
Civil Twilight 6:29 AM EST 6:58 PM EST
Nautical Twilight 5:57 AM EST 7:29 PM EST
Astronomical Twilight 5:26 AM EST 8:01 PM EST
Moon 3:55 AM EST (3/7) 2:17 PM EST (3/7)
Length of Visible Light 12h 28m
Length of Day
11h 34m
Waning Crescent, 20% of the Moon is Illuminated
Mar 7
Waning Crescent
Mar 11
New
Mar 19
First Quarter
Mar 27
Full
Apr 3
Last Quarter

Hourly Weather History & Observations

Time (EST) Temp. Windchill Dew Point Humidity Pressure Visibility Wind Dir Wind Speed Gust Speed Precip Events Conditions
12:53 AM 32.0 °F 24.8 °F 26.1 °F 79% 30.21 in 8.0 mi WNW 8.1 mph - N/A   Overcast
1:53 AM 32.0 °F 24.2 °F 27.0 °F 82% 30.23 in 7.0 mi WNW 9.2 mph - N/A   Overcast
2:53 AM 32.0 °F 24.8 °F 26.1 °F 79% 30.23 in 7.0 mi NW 8.1 mph - N/A   Overcast
3:53 AM 30.9 °F 23.5 °F 26.1 °F 82% 30.23 in 7.0 mi WNW 8.1 mph - N/A   Overcast
4:01 AM 30.2 °F 23.4 °F 26.6 °F 86% 30.20 in 7.0 mi WNW 6.9 mph - N/A   Overcast
4:53 AM 30.9 °F 25.2 °F 26.1 °F 82% 30.25 in 6.0 mi WNW 5.8 mph - N/A   Haze
5:53 AM 30.9 °F 25.2 °F 26.1 °F 82% 30.27 in 6.0 mi WNW 5.8 mph - N/A   Haze
6:53 AM 30.9 °F 24.3 °F 26.1 °F 82% 30.28 in 6.0 mi West 6.9 mph - N/A   Haze
7:53 AM 30.9 °F 24.3 °F 27.0 °F 85% 30.30 in 5.0 mi WNW 6.9 mph - N/A   Overcast
8:53 AM 32.0 °F 25.6 °F 27.0 °F 82% 30.31 in 5.0 mi West 6.9 mph - N/A   Haze
9:53 AM 33.1 °F 25.5 °F 28.0 °F 82% 30.33 in 5.0 mi WNW 9.2 mph - N/A   Haze
10:44 AM 33.8 °F 27.0 °F 28.4 °F 81% 30.30 in 5.0 mi WNW 8.1 mph - N/A   Haze
10:53 AM 34.0 °F 28.8 °F 28.9 °F 82% 30.33 in 5.0 mi NW 5.8 mph - N/A   Haze
11:53 AM 36.0 °F 29.0 °F 28.0 °F 73% 30.33 in 7.0 mi WNW 9.2 mph - N/A   Overcast
12:02 PM 35.6 °F 28.6 °F 28.4 °F 75% 30.30 in 7.0 mi WNW 9.2 mph - N/A   Mostly Cloudy
12:53 PM 37.0 °F 29.8 °F 28.9 °F 73% 30.32 in 7.0 mi West 10.4 mph - N/A   Mostly Cloudy
1:53 PM 37.9 °F 30.5 °F 30.0 °F 73% 30.31 in 8.0 mi West 11.5 mph - N/A   Mostly Cloudy
2:48 PM 37.4 °F 29.3 °F 28.4 °F 70% 30.28 in 10.0 mi NW 12.7 mph - N/A   Overcast
2:53 PM 37.0 °F 29.3 °F 28.9 °F 73% 30.31 in 10.0 mi NW 11.5 mph - N/A   Overcast
3:53 PM 39.0 °F 34.0 °F 28.0 °F 65% 30.32 in 10.0 mi NW 6.9 mph - N/A   Partly Cloudy
4:28 PM 37.4 °F 30.3 °F 28.4 °F 70% 30.30 in 10.0 mi NW 10.4 mph - N/A   Mostly Cloudy
4:40 PM 37.4 °F 30.8 °F 28.4 °F 70% 30.30 in 10.0 mi NW 9.2 mph - N/A   Mostly Cloudy
4:53 PM 37.0 °F 31.0 °F 28.9 °F 73% 30.32 in 10.0 mi NW 8.1 mph - N/A   Scattered Clouds
5:53 PM 36.0 °F 28.0 °F 28.0 °F 73% 30.34 in 10.0 mi WNW 11.5 mph - N/A   Clear
6:53 PM 34.0 °F 27.2 °F 27.0 °F 75% 30.35 in 10.0 mi WNW 8.1 mph - N/A   Clear
7:53 PM 33.1 °F 26.1 °F 27.0 °F 78% 30.36 in 10.0 mi NW 8.1 mph - N/A   Mostly Cloudy
8:53 PM 34.0 °F 27.2 °F 27.0 °F 75% 30.38 in 10.0 mi NW 8.1 mph - N/A   Overcast
9:53 PM 33.1 °F 26.9 °F 28.0 °F 82% 30.37 in 10.0 mi WNW 6.9 mph - N/A   Overcast
10:53 PM 33.1 °F 27.7 °F 27.0 °F 78% 30.37 in 10.0 mi NNW 5.8 mph - N/A   Overcast
11:53 PM 33.1 °F 26.9 °F 28.0 °F 82% 30.37 in 10.0 mi North 6.9 mph - N/A   Overcast